GW6044 Weather Reports


time (UTC)temp
F
wind
direction
speed
knots
gust
knots
rain 1hr
in
rain 24hr
in
rain mn
in
humidity
%
barometer
mb
20260505231013 62 213 1.7 3.5 0.00 0.00 0.00 73 1015.6
20260505230506 62 217 0.9 5.2 0.00 0.00 0.00 73 1015.5
20260505230018 62 174 1.7 5.2 0.00 0.00 0.00 73 1015.6
20260505225506 62 163 1.7 3.5 0.00 0.00 0.00 73 1015.6
20260505225011 62 179 1.7 3.5 0.00 0.00 0.00 73 1015.7
20260505224514 62 234 1.7 3.5 0.00 0.00 0.00 72 1015.7
20260505224007 62 196 1.7 5.2 0.00 0.00 0.00 72 1015.8
20260505223508 62 213 2.6 5.2 0.00 0.00 0.00 71 1015.7
20260505223017 62 217 0.9 4.3 0.00 0.00 0.00 72 1015.8
20260505222505 62 185 1.7 4.3 0.00 0.00 0.00 72 1015.7
20260505222008 62 184 1.7 4.3 0.00 0.00 0.00 70 1015.7
20260505221508 62 215 0.9 3.5 0.00 0.00 0.00 73 1015.7
20260505221006 62 219 0.9 1.7 0.00 0.00 0.00 72 1015.7
20260505220503 62 154 0.9 3.5 0.00 0.00 0.00 74 1015.8
20260505220003 62 101 0.9 3.5 0.00 0.00 0.00 72 1015.8
20260505215503 62 173 0.9 3.5 0.00 0.00 0.00 74 1015.9
20260505215003 61 113 0.9 2.6 0.00 0.00 0.00 75 1016.0
20260505214504 61 196 0.9 2.6 0.00 0.00 0.00 73 1016.0
20260505214002 61 155 0.9 3.5 0.00 0.00 0.00 73 1016.1
20260505213502 61 103 2.6 3.5 0.00 0.00 0.00 74 1016.1
20260505213016 62 74 0.9 2.6 0.00 0.00 0.00 74 1016.1
20260505212503 62 188 1.7 2.6 0.00 0.00 0.00 72 1016.2
20260505212003 61 219 0.9 2.6 0.00 0.00 0.00 73 1016.2
20260505211516 61 158 0.9 1.7 0.00 0.00 0.00 73 1016.2
20260505211006 61 337 0.0 4.3 0.00 0.00 0.00 74 1016.2
20260505210502 61 167 0.9 4.3 0.00 0.00 0.00 73 1016.3
20260505210011 61 242 0.9 3.5 0.00 0.00 0.00 74 1016.3
20260505205507 61 215 1.7 3.5 0.00 0.00 0.00 74 1016.3
20260505205004 61 229 1.7 3.5 0.00 0.00 0.00 74 1016.3
20260505204514 61 184 0.9 2.6 0.00 0.00 0.00 76 1016.3
20260505204004 60 228 0.9 2.6 0.00 0.00 0.00 76 1016.3
20260505203506 60 86 0.9 1.7 0.00 0.00 0.00 76 1016.3
20260505203021 60 100 0.9 2.6 0.00 0.00 0.00 77 1016.3
20260505202503 60 149 0.9 2.6 0.00 0.00 0.00 77 1016.4
20260505202010 60 146 0.9 5.2 0.00 0.00 0.00 78 1016.4
20260505201504 59 135 1.7 5.2 0.00 0.00 0.00 77 1016.4
20260505201005 60 112 1.7 5.2 0.00 0.00 0.00 79 1016.4
20260505200506 60 100 1.7 2.6 0.00 0.00 0.00 75 1016.5
20260505200016 61 90 0.9 2.6 0.00 0.00 0.00 75 1016.5
20260505195506 61 187 0.9 2.6 0.00 0.00 0.00 74 1016.4
20260505195006 60 238 0.0 2.6 0.00 0.00 0.00 77 1016.4
20260505194519 60 349 0.0 2.6 0.00 0.00 0.00 76 1016.5
20260505194003 60 186 0.9 2.6 0.00 0.00 0.00 77 1016.5
20260505193504 60 138 0.0 2.6 0.00 0.00 0.00 78 1016.5
20260505193017 59 168 0.9 3.5 0.00 0.00 0.00 78 1016.5
20260505192503 60 140 0.9 3.5 0.00 0.00 0.00 77 1016.5
20260505192003 59 222 0.9 2.6 0.00 0.00 0.00 78 1016.5
20260505191512 59 212 0.9 1.7 0.00 0.00 0.00 78 1016.5
20260505191003 59 178 0.9 4.3 0.00 0.00 0.00 81 1016.5
20260505190506 59 84 0.9 4.3 0.00 0.00 0.00 80 1016.5
20260505190008 59 98 0.9 3.5 0.00 0.00 0.00 80 1016.5
20260505185503 59 175 0.9 3.5 0.00 0.00 0.00 79 1016.6
20260505185010 59 102 0.9 2.6 0.00 0.00 0.00 81 1016.6
20260505184506 59 185 1.7 2.6 0.00 0.00 0.00 80 1016.6
20260505184008 59 137 0.9 3.5 0.00 0.00 0.00 80 1016.6
20260505183505 58 187 1.7 5.2 0.00 0.00 0.00 79 1016.7
20260505183021 58 171 0.9 5.2 0.00 0.00 0.00 82 1016.6
20260505182503 58 10 0.9 2.6 0.00 0.00 0.00 84 1016.6
20260505182007 57 76 1.7 3.5 0.00 0.00 0.00 84 1016.5
20260505181519 57 66 0.9 5.2 0.00 0.00 0.00 84 1016.5
20260505181004 57 84 0.9 5.2 0.00 0.00 0.00 85 1016.5
20260505180504 57 80 0.9 3.5 0.00 0.00 0.00 85 1016.5
20260505180021 57 65 0.9 2.6 0.00 0.00 0.00 85 1016.5
20260505175503 56 116 0.9 2.6 0.00 0.00 0.00 86 1016.5
20260505175008 56 142 1.7 4.3 0.00 0.00 0.00 86 1016.6
20260505174515 56 75 1.7 4.3 0.00 0.00 0.00 86 1016.7
20260505174006 56 99 1.7 4.3 0.00 0.00 0.00 87 1016.6
20260505173503 56 93 2.6 3.5 0.00 0.00 0.00 87 1016.5
20260505173012 56 82 1.7 5.2 0.00 0.00 0.00 87 1016.5
20260505172506 56 100 2.6 5.2 0.00 0.00 0.00 88 1016.5
20260505172010 56 124 0.9 3.5 0.00 0.00 0.00 88 1016.4
20260505171510 55 224 0.9 3.5 0.00 0.00 0.00 88 1016.4
20260505171006 55 71 1.7 3.5 0.00 0.00 0.00 88 1016.4
20260505170508 55 82 0.9 4.3 0.00 0.00 0.00 88 1016.4
20260505170019 55 133 1.7 4.3 0.00 0.00 0.00 88 1016.4
20260505165506 55 194 0.9 2.6 0.00 0.00 0.00 88 1016.4
20260505165008 55 169 0.9 1.7 0.00 0.00 0.00 89 1016.4
20260505164520 55 101 0.9 3.5 0.00 0.00 0.00 89 1016.3
20260505164003 55 107 0.9 3.5 0.00 0.00 0.00 89 1016.3
20260505163506 55 104 0.9 3.5 0.00 0.00 0.00 88 1016.2
20260505163017 55 107 1.7 3.5 0.00 0.00 0.00 89 1016.2
20260505162505 55 173 0.0 3.5 0.00 0.00 0.00 90 1016.2
20260505162006 55 211 0.9 3.5 0.00 0.00 0.00 90 1016.2
20260505161518 55 182 0.0 1.7 0.00 0.00 0.00 90 1016.1
20260505161005 55 192 0.9 1.7 0.00 0.00 0.00 91 1016.1
20260505160504 54 133 0.0 1.7 0.00 0.00 0.00 91 1016.1
20260505153009 54 190 0.0 1.7 0.00 0.00 0.00 92 1016.0
20260505152504 53 198 0.0 1.7 0.00 0.00 0.00 92 1016.0
20260505152013 53 164 0.0 1.7 0.00 0.00 0.00 93 1016.0
20260505151519 53 132 0.0 1.7 0.00 0.00 0.00 93 1015.9
20260505151003 53 132 0.0 1.7 0.00 0.00 0.00 93 1015.9
20260505150508 53 123 0.0 1.7 0.00 0.00 0.00 94 1015.9
20260505140508 53 215 0.0 1.7 0.00 0.00 0.00 94 1015.5
20260505125011 53 257 0.0 1.7 0.00 0.00 0.00 92 1014.8
20260505124516 53 252 0.9 1.7 0.00 0.00 0.00 92 1014.9
20260505124008 53 227 0.9 1.7 0.00 0.00 0.00 92 1014.8
20260505123510 53 224 0.9 0.9 0.00 0.00 0.00 91 1014.8
20260505123018 53 225 0.9 0.9 0.00 0.00 0.00 91 1014.7
20260505122507 53 223 0.9 0.9 0.00 0.00 0.00 91 1014.7
20260505122009 53 221 0.9 0.9 0.00 0.00 0.00 91 1014.7
20260505121522 53 229 0.9 0.9 0.00 0.00 0.00 90 1014.7
20260505121009 53 215 0.9 1.7 0.00 0.00 0.00 90 1014.6
20260505120507 53 223 0.0 1.7 0.00 0.00 0.00 90 1014.6
20260505120034 53 232 0.0 1.7 0.00 0.00 0.00 90 1014.6
20260505115507 53 240 0.0 1.7 0.00 0.00 0.00 90 1014.6
20260505115008 53 240 0.0 1.7 0.00 0.00 0.00 90 1014.6
20260505114519 53 240 0.9 1.7 0.00 0.00 0.00 89 1014.7
20260505114012 53 262 0.0 1.7 0.00 0.00 0.00 89 1014.7
20260505113506 53 262 0.0 1.7 0.00 0.00 0.00 89 1014.7
20260505113019 53 262 0.0 1.7 0.00 0.00 0.00 89 1014.6
20260505112511 53 262 0.0 1.7 0.00 0.00 0.00 89 1014.6
20260505112010 53 262 0.0 0.9 0.00 0.00 0.00 89 1014.6
20260505111529 53 262 0.9 0.9 0.00 0.00 0.00 90 1014.6
20260505111009 53 242 0.0 1.7 0.00 0.00 0.00 89 1014.6
20260505110510 53 215 0.0 1.7 0.00 0.00 0.00 89 1014.5
20260505102006 53 271 0.0 1.7 0.00 0.00 0.00 91 1014.4
20260505101519 52 271 0.0 1.7 0.00 0.00 0.00 91 1014.4
20260505101009 52 242 0.0 1.7 0.00 0.00 0.00 92 1014.4
20260505100509 52 242 0.0 1.7 0.00 0.00 0.00 92 1014.4
20260505100027 52 242 0.0 1.7 0.00 0.00 0.00 92 1014.4
20260505095507 52 232 0.0 1.7 0.00 0.00 0.00 92 1014.4
20260505095011 52 234 0.9 1.7 0.00 0.00 0.00 92 1014.3
20260505094520 52 259 0.9 1.7 0.00 0.00 0.00 92 1014.3
20260505094009 51 259 0.0 1.7 0.00 0.00 0.00 92 1014.2
20260505093509 51 259 0.0 1.7 0.00 0.00 0.00 92 1014.2
20260505093022 51 259 0.0 1.7 0.00 0.00 0.00 92 1014.1
20260505092509 51 259 0.0 0.9 0.00 0.00 0.00 92 1014.2
20260505092009 51 259 0.9 0.9 0.00 0.00 0.00 92 1014.1
20260505091521 51 254 0.0 0.9 0.00 0.00 0.00 92 1014.0
20260505091009 51 256 0.0 1.7 0.00 0.00 0.00 92 1014.0
20260505090508 51 239 0.9 1.7 0.00 0.00 0.00 92 1013.8
20260505090021 51 261 0.9 0.9 0.00 0.00 0.00 92 1013.8
20260505085507 51 261 0.0 0.9 0.00 0.00 0.00 92 1013.6
20260505085009 51 258 0.9 0.9 0.00 0.00 0.00 92 1013.6
20260505084533 51 242 0.9 0.9 0.00 0.00 0.00 91 1013.6
20260505084010 51 232 0.9 1.7 0.00 0.00 0.00 91 1013.5
20260505083509 52 225 0.9 1.7 0.00 0.00 0.00 91 1013.5
20260505083030 52 260 0.9 1.7 0.00 0.00 0.00 91 1013.5
20260505082509 52 252 0.9 0.9 0.00 0.00 0.00 91 1013.5
20260505082007 52 259 0.0 1.7 0.00 0.00 0.00 91 1013.4
20260505081525 52 260 0.9 1.7 0.00 0.00 0.00 91 1013.3
20260505081014 52 261 0.9 1.7 0.00 0.00 0.00 91 1013.3
20260505080507 52 261 0.9 1.7 0.00 0.00 0.00 90 1013.3
20260505080033 53 223 0.0 1.7 0.00 0.00 0.00 90 1013.2
20260505075514 53 254 0.9 1.7 0.00 0.00 0.00 90 1013.1
20260505075011 53 240 0.9 1.7 0.00 0.00 0.00 90 1013.1
20260505074526 53 242 0.0 1.7 0.00 0.00 0.00 90 1013.0
20260505074007 53 229 0.9 1.7 0.00 0.00 0.00 90 1013.0
20260505073507 53 247 0.9 1.7 0.00 0.00 0.00 90 1013.0
20260505073037 53 241 0.9 1.7 0.00 0.00 0.00 90 1013.0
20260505072509 53 261 0.9 1.7 0.00 0.00 0.00 89 1012.9
20260505072008 53 243 0.9 0.9 0.00 0.00 0.00 89 1012.9
20260505071540 54 259 0.9 0.9 0.00 0.00 0.00 89 1012.8
20260505071011 54 238 0.9 0.9 0.00 0.00 0.00 89 1012.8
20260505070508 54 236 0.9 1.7 0.00 0.00 0.00 89 1012.6
20260505070036 54 230 0.9 1.7 0.00 0.00 0.00 88 1012.6
20260505065508 54 238 0.9 0.9 0.00 0.00 0.00 88 1012.5
20260505065006 55 248 0.9 1.7 0.00 0.00 0.00 88 1012.4
20260505064524 55 250 0.9 1.7 0.00 0.00 0.00 88 1012.3
20260505064011 55 232 0.9 1.7 0.00 0.00 0.00 87 1012.2
20260505063508 55 254 0.9 1.7 0.00 0.00 0.00 87 1012.1
20260505063032 55 250 0.9 1.7 0.00 0.00 0.00 87 1012.0
20260505062511 56 239 0.9 1.7 0.00 0.00 0.00 86 1012.0
20260505062011 56 242 0.9 1.7 0.00 0.00 0.00 86 1012.0
20260505061529 56 234 0.9 1.7 0.00 0.00 0.00 86 1011.9
20260505061008 56 230 0.9 1.7 0.00 0.00 0.00 86 1011.9
20260505060510 57 205 0.9 1.7 0.00 0.00 0.00 85 1011.8
20260505060051 57 260 0.9 1.7 0.00 0.00 0.00 1011.8
20260505055513 57 249 1.7 1.7 0.00 0.00 0.00 1011.8
20260505055012 57 227 1.7 2.6 0.00 0.00 0.00 83 1011.8
20260505054528 57 234 1.7 2.6 0.00 0.00 0.00 83 1011.7
20260505054019 58 236 1.7 1.7 0.00 0.00 0.00 83 1011.7
20260505053512 58 252 1.7 1.7 0.00 0.00 0.00 82 1011.7
20260505053026 59 231 0.9 1.7 0.00 0.00 0.00 81 1011.7
20260505052511 59 255 0.9 1.7 0.00 0.00 0.00 80 1011.7
20260505052008 59 223 0.9 1.7 0.00 0.00 0.00 79 1011.6
20260505051526 59 256 0.9 1.7 0.00 0.00 0.00 79 1011.6
20260505051007 60 255 0.9 1.7 0.00 0.00 0.00 79 1011.5
20260505050507 60 252 0.9 2.6 0.00 0.00 0.00 78 1011.5
20260505041532 64 289 0.9 3.5 0.00 0.00 0.00 69 1011.0
20260505041012 64 219 0.9 3.5 0.00 0.00 0.00 70 1011.0
20260505040513 64 275 0.9 1.7 0.00 0.00 0.00 71 1010.9
20260505040020 64 161 0.0 1.7 0.00 0.00 0.00 69 1010.9
20260505035506 65 238 0.0 1.7 0.00 0.00 0.00 69 1010.9
20260505035003 65 265 0.0 1.7 0.00 0.00 0.00 69 1010.7
20260505034511 65 263 0.0 1.7 0.00 0.00 0.00 69 1010.6
20260505034006 65 229 0.0 1.7 0.00 0.00 0.00 69 1010.4
20260505033503 66 240 0.9 1.7 0.00 0.00 0.00 70 1010.3
20260505033007 67 266 0.0 2.6 0.00 0.00 0.00 68 1010.1
20260505032508 67 213 0.9 2.6 0.00 0.00 0.00 65 1009.9
20260505032006 67 219 0.9 2.6 0.00 0.00 0.00 65 1009.9
20260505031505 68 215 0.0 1.7 0.00 0.00 0.00 64 1009.8
20260505031005 68 195 0.9 1.7 0.00 0.00 0.00 63 1009.7
20260505030504 68 211 0.9 1.7 0.00 0.00 0.00 64 1009.6
20260505030003 68 200 0.9 1.7 0.00 0.00 0.00 63 1009.6
20260505025507 69 228 0.9 1.7 0.00 0.00 0.00 61 1009.5
20260505025003 69 225 0.9 1.7 0.00 0.00 0.00 60 1009.5
20260505024522 70 246 0.9 1.7 0.00 0.00 0.00 58 1009.6
20260505024005 71 219 0.9 1.7 0.00 0.00 0.00 56 1009.4
20260505023504 71 227 0.9 1.7 0.00 0.00 0.00 55 1009.3
20260505023018 72 218 0.9 1.7 0.00 0.00 0.00 54 1009.3
20260505022502 72 225 0.9 1.7 0.00 0.00 0.00 53 1009.3
20260505022003 72 221 0.9 2.6 0.00 0.00 0.00 51 1009.3
20260505021515 72 213 1.7 2.6 0.00 0.00 0.00 50 1009.3
20260505021007 73 198 1.7 3.5 0.00 0.00 0.00 49 1009.3
20260505020502 73 221 1.7 3.5 0.00 0.00 0.00 49 1009.3
20260505020013 73 235 0.9 3.5 0.00 0.00 0.00 48 1009.3
20260505015505 73 236 1.7 4.3 0.00 0.00 0.00 48 1009.3
20260505015002 74 223 1.7 4.3 0.00 0.00 0.00 47 1009.4
20260505014511 74 218 0.9 4.3 0.00 0.00 0.00 48 1009.3
20260505014007 74 258 0.9 4.3 0.00 0.00 0.00 48 1009.4
20260505013501 74 219 0.9 4.3 0.00 0.00 0.00 49 1009.3
20260505013003 74 237 1.7 4.3 0.00 0.00 0.00 49 1009.3
20260505012505 74 214 1.7 4.3 0.00 0.00 0.00 50 1009.3
20260505012006 74 154 0.9 4.3 0.00 0.00 0.00 51 1009.4
20260505011532 74 144 0.9 4.3 0.00 0.00 0.00 54 1009.4
20260505011004 74 157 0.9 4.3 0.00 0.00 0.00 59 1009.4
20260505010503 74 198 0.9 3.5 0.00 0.00 0.00 58 1009.4
20260505010021 74 211 0.9 7.0 0.00 0.00 0.00 59 1009.4
20260505005503 74 170 2.6 7.0 0.00 0.00 0.00 59 1009.5
20260505005003 74 171 1.7 4.3 0.00 0.00 0.00 59 1009.5
20260505004523 74 148 1.7 5.2 0.00 0.00 0.00 59 1009.6
20260505004006 74 182 0.0 5.2 0.00 0.00 0.00 59 1009.6
20260505003503 74 142 1.7 5.2 0.00 0.00 0.00 59 1009.6
20260505003023 74 214 0.9 5.2 0.00 0.00 0.00 60 1009.6
20260505002505 74 132 0.9 5.2 0.00 0.00 0.00 59 1009.6
20260505002002 74 188 0.9 4.3 0.00 0.00 0.00 59 1009.5
20260505001513 74 165 0.9 3.5 0.00 0.00 0.00 60 1009.6
20260505001008 74 196 0.9 3.5 0.00 0.00 0.00 59 1009.6
20260505000505 73 193 1.7 5.2 0.00 0.00 0.00 60 1009.6
20260505000011 73 101 2.6 5.2 0.00 0.00 0.00 59 1009.6
20260504235506 73 122 2.6 5.2 0.00 0.00 0.00 59 1009.7
20260504235002 73 215 1.7 4.3 0.00 0.00 0.00 60 1009.7
20260504234519 73 150 0.9 4.3 0.00 0.00 0.00 61 1009.6
20260504234002 72 104 1.7 5.2 0.00 0.00 0.00 60 1009.7
20260504233503 72 188 1.7 8.7 0.00 0.00 0.00 59 1009.8
20260504233020 72 103 1.7 8.7 0.00 0.00 0.00 60 1009.8
20260504232505 71 143 2.6 4.3 0.00 0.00 0.00 62 1009.8
20260504232006 71 115 1.7 3.5 0.00 0.00 0.00 64 1009.8
20260504231519 71 102 1.7 7.0 0.00 0.00 0.00 60 1009.9